Overview Statistics Trail Chart Weather Telemetry Raw packets
 

This is the latest recevied weather packets stored in our database for station/object YD2CLX-17. If no packets are shown the sender has not sent any weather packets the latest 10 day(s).

<< 33 34 35 36 37 38 39 >>
Time Temp. Humidity Pressure Rain* Wind** Luminosity Snow
1787843713 22.78° C 80% 1018 hPa 0 mm - - -
1787842813 23.33° C 83% 1018 hPa 0 mm - - -
1787841913 23.33° C 82% 1018 hPa 0 mm - - -
1787841014 24.44° C 82% 1018 hPa 0 mm - - -
1787840114 25.56° C 77% 1018 hPa 0 mm - - -
1787839214 23.33° C 79% 1018 hPa 0 mm - - -
1787838314 25.56° C 79% 1018 hPa 0 mm - - -
1787837413 23.89° C 73% 1018 hPa 0 mm - - -
1787836513 23.89° C 73% 1017 hPa 0 mm - - -
1787835615 23.89° C 73% 1017 hPa 0 mm - - -
1787834718 23.89° C 73% 1017 hPa 0 mm - - -
1787833813 23.89° C 73% 1017 hPa 0 mm - - -
1787832915 23.89° C 73% 1017 hPa 0 mm - - -
1787832014 23.89° C 73% 1017 hPa 0 mm - - -
1787831113 23.89° C 73% 1016 hPa 0 mm - - -
1787830214 25.56° C 65% 1016 hPa 0 mm - - -
1787829313 25.56° C 65% 1016 hPa 0 mm - - -
1787828413 25.56° C 65% 1016 hPa 0 mm - - -
1787827513 25.56° C 65% 1016 hPa 0 mm - - -
1787826613 25.56° C 65% 1016 hPa 0 mm - - -
1787825713 25.56° C 65% 1015 hPa 0 mm - - -
1787824813 25.56° C 65% 1015 hPa 0 mm - - -
1787823913 25.56° C 65% 1015 hPa 0 mm - - -
1787823013 28.89° C 59% 1015 hPa 0 mm - - -
1787822113 28.89° C 59% 1014 hPa 0 mm - - -

* Rain latest hour (hover to see other rain measurements)
** Current wind speed in m/s (hover to see current wind gust speed)